Wetbulb
50.88 51.17 53.46 53.46 53.87 53.70 53.31 54.51 54.59 54.10 53.53 53.75 54.34 55.53 55.61 54.61 55.08 53.21 52.80 53.11 54.59 54.07 53.72 53.33 53.61 54.63 53.31 51.79 53.67 51.99 52.26 52.04 50.32 50.79 53.37 52.65 51.77 54.39 56.38 58.02 59.36 58.93 60.36
49.43 49.29 50.17 52.98 52.97 52.36 53.20 53.56 53.53 53.34 53.31 54.02 54.95 55.20 54.85 54.51 54.77 53.43 52.30 55.21 53.59 53.57 54.16 52.32 53.02 56.32 52.29 52.62 51.85 51.05 51.47 52.58 51.06 48.61 49.97 49.17 50.83 55.09 57.68 57.54 58.59 59.80 59.89
49.73 48.91 48.41 50.04 51.96 52.55 53.10 53.99 54.69 53.87 53.12 53.79 54.68 55.13 55.42 54.55 55.76 55.41 53.45 54.30 53.89 54.61 54.43 52.72 51.80 52.60 52.65 52.45 52.41 52.37 52.56 53.93 51.91 49.12 49.29 51.62 52.06 54.69 57.20 57.70 57.26 57.38 59.06
50.04 49.34 49.34 49.47 51.89 52.69 53.12 54.53 54.19 52.76 50.82 52.23 54.40 54.72 55.20 54.48 55.46 54.94 52.33 53.81 51.96 53.37 54.75 54.22 52.51 51.40 52.44 51.74 54.08 51.99 52.71 52.16 51.31 51.67 52.26 53.52 53.66 56.36 56.06 55.38 54.55 55.88 54.98
49.63 49.16 49.48 50.98 52.18 53.03 53.50 54.59 54.53 53.90 53.23 54.26 53.66 53.77 55.03 54.40 55.83 53.74 52.29 54.15 53.88 52.91 52.77 54.83 52.72 54.24 56.20 54.67 53.80 51.38 51.27 50.38 50.80 51.13 51.76 52.81 54.13 54.42 53.78 54.99 51.61 52.28 50.46
50.07 49.89 50.64 50.93 52.82 51.73 52.30 52.96 54.30 53.61 53.25 54.36 54.66 54.34 53.91 54.56 53.09 53.01 53.28 51.35 52.40 54.10 53.68 51.60 53.55 53.97 52.82 53.84 54.65 55.85 54.87 52.82 52.47 50.81 50.98 50.36 51.12 51.50 52.94 50.99 47.85 45.97 44.78
49.25 49.86 52.22 50.56 50.66 51.14 51.96 51.98 53.84 53.14 53.31 53.84 52.96 53.81 52.24 52.70 49.19 50.68 53.05 51.11 51.76 50.35 53.47 52.61 52.70 55.52 53.70 51.43 52.31 54.78 54.77 55.15 54.81 51.92 50.25 49.97 49.71 51.95 52.11 50.75 50.41 48.39 50.39
48.93 49.62 50.18 49.72 49.92 51.05 50.74 50.72 51.36 52.37 52.64 53.26 52.96 53.04 52.08 54.05 47.95 48.50 49.96 50.49 51.05 51.11 53.04 52.98 52.03 51.98 48.06 50.69 53.60 53.04 55.08 55.60 55.08 56.38 54.06 55.82 53.94 56.27 54.18 52.40 51.87 52.62 52.78
45.93 46.51 47.70 48.37 48.97 49.81 49.96 50.96 51.55 51.85 52.52 53.07 54.33 52.65 54.21 51.84 48.51 47.13 48.25 48.29 50.82 51.11 52.32 54.73 53.95 51.36 48.46 48.46 55.61 53.19 49.63 49.32 51.54 50.50 49.73 49.24 48.28 49.16 53.97 53.79 51.20 50.16 48.49
46.35 46.78 47.90 49.02 48.22 48.33 49.66 50.19 51.60 52.75 52.22 53.75 53.96 53.77 53.94 51.03 46.88 45.80 46.34 47.96 48.62 50.70 52.71 52.96 52.63 49.34 46.42 48.14 51.49 53.38 52.57 48.63 48.84 48.63 48.75 49.01 50.45 49.39 52.16 53.35 53.06 49.81 49.88
47.37 47.34 47.92 47.96 47.39 47.73 48.80 50.19 50.88 52.11 52.67 52.67 53.92 53.78 53.41 53.52 49.13 44.60 45.01 48.51 48.81 52.17 50.17 52.71 51.05 46.51 45.10 45.39 47.58 45.31 44.39 46.15 48.10 50.70 51.15 50.99 50.77 51.19 47.99 49.29 53.21 52.08 47.26
46.42 46.97 47.23 48.11 47.77 48.76 47.41 49.51 50.03 50.82 51.11 51.18 51.79 52.34 53.68 52.76 51.22 45.92 44.35 45.37 50.50 50.72 51.96 53.03 52.36 45.13 44.18 44.21 45.16 43.86 43.91 46.13 47.25 47.65 45.49 49.83 50.22 50.89 50.19 49.93 51.67 53.66 52.51
45.08 45.11 45.56 46.85 45.89 45.83 45.50 47.29 48.01 50.28 49.51 50.19 51.11 50.86 52.01 52.81 52.74 50.12 45.23 44.02 46.16 49.59 50.85 51.34 45.96 43.17 43.93 43.58 44.85 44.32 43.97 45.15 46.53 47.37 48.17 47.55 50.00 52.46 54.08 51.59 53.31 53.17 53.36
44.23 44.50 44.08 42.70 45.72 45.11 47.15 46.92 47.28 49.51 47.20 49.62 48.90 48.72 50.33 53.83 52.86 49.30 47.31 46.01 46.04 48.35 48.04 47.94 45.91 46.12 45.02 45.52 45.46 43.66 44.56 45.47 45.82 46.65 45.94 49.46 54.88 52.40 52.42 52.42 51.05 50.65 50.15
44.66 44.66 42.47 42.43 41.78 44.22 46.60 48.28 47.40 48.57 45.45 45.82 46.32 48.58 49.03 51.29 49.41 46.92 47.69 47.55 47.47 47.78 47.43 46.71 45.23 44.99 44.25 45.16 45.85 46.15 44.66 44.99 45.03 46.03 46.61 47.17 51.90 50.49 50.21 51.36 50.01 50.54 49.12
43.83 44.20 42.72 40.54 41.38 43.48 45.31 46.10 44.89 44.40 42.60 41.13 41.07 43.21 47.55 44.76 42.71 43.29 44.47 44.37 42.89 41.73 46.26 48.96 46.33 46.18 47.62 47.48 47.14 46.35 47.56 48.17 48.05 48.18 47.44 46.78 47.37 51.50 51.87 50.87 49.45 50.51 51.37
42.27 42.70 45.24 42.69 41.63 43.75 44.04 43.55 45.14 47.55 45.58 44.41 40.79 41.74 41.45 41.10 41.47 43.58 42.73 42.16 42.86 43.45 45.66 49.94 51.99 49.55 52.21 52.28 51.97 49.83 48.37 50.20 50.50 49.53 49.54 48.19 47.95 48.26 49.39 50.13 52.45 50.85 49.02
43.95 43.53 41.96 43.83 43.16 43.02 43.56 42.66 45.41 46.28 46.24 46.95 44.00 41.64 42.72 41.48 41.39 42.91 41.95 43.03 49.37 44.75 46.33 48.08 48.15 49.56 50.94 52.80 52.16 52.23 52.11 52.00 50.47 48.89 47.09 47.14 47.71 48.46 47.90 48.24 49.47 47.94 48.20
44.75 41.75 41.55 42.28 43.62 43.04 43.09 41.61 42.46 43.52 45.34 45.68 48.08 42.59 44.73 41.55 41.90 41.79 39.96 46.79 49.20 49.84 49.21 48.37 48.60 49.66 49.58 50.62 50.78 52.60 50.33 51.18 50.50 49.36 47.60 46.42 47.11 47.68 46.64 46.65 46.60 45.39 47.07
45.62 43.96 41.26 41.33 41.71 42.56 39.37 41.90 41.59 40.13 40.85 41.30 43.75 43.35 42.87 42.99 45.52 46.68 48.70 50.16 49.17 49.60 50.19 52.84 50.95 50.70 51.52 49.66 50.70 50.32 50.04 49.56 48.09 48.00 47.72 47.40 48.10 48.43 47.27 46.73 46.12 46.54 46.30
43.52 42.81 41.63 40.67 42.90 41.75 40.66 42.40 42.47 42.30 41.35 40.86 41.38 42.16 35.20 40.44 44.65 46.19 46.95 47.44 50.32 51.05 51.75 51.51 51.58 52.33 51.13 51.05 52.99 51.40 50.15 51.45 50.78 50.44 47.67 47.77 47.40 46.60 48.20 47.99 47.61 48.64 48.95
43.56 42.18 41.55 42.34 43.05 42.25 42.31 42.41 42.69 42.75 42.79 42.38 41.41 42.05 36.09 43.43 44.71 46.79 46.73 48.04 49.83 49.12 50.07 51.87 52.31 53.04 53.23 52.43 54.30 53.04 52.24 51.84 51.48 50.48 50.71 49.08 48.22 48.25 48.34 48.40 48.50 47.85 46.30
43.81 44.65 43.88 40.86 42.63 41.81 42.02 40.89 41.11 43.27 43.02 42.13 43.01 41.43 41.85 41.82 42.81 43.61 46.19 47.31 46.64 47.41 49.73 51.96 51.07 53.15 55.86 56.20 55.31 52.28 49.28 47.86 48.29 50.45 50.79 50.72 49.72 49.91 50.83 50.64 49.53 47.92 46.22
43.15 44.26 44.17 42.54 41.96 41.03 41.97 42.77 41.51 39.64 41.03 40.34 40.67 41.59 41.70 42.76 42.56 43.48 43.70 44.52 45.39 46.07 47.18 48.60 49.64 52.18 53.51 53.26 51.08 48.07 46.13 45.50 47.97 48.40 50.32 51.44 50.58 49.59 49.77 48.93 48.55 49.20 47.32
43.08 43.21 43.61 43.86 43.49 42.57 42.14 41.07 40.99 43.10 43.06 42.60 41.29 40.65 42.26 42.44 42.19 42.95 43.54 44.22 44.97 45.63 46.17 47.56 50.41 52.55 52.96 50.39 46.71 44.04 35.37 33.11 41.70 36.78 48.10 51.42 52.40 50.84 50.39 51.44 51.12 50.87 49.58
43.42 44.68 44.71 44.32 43.95 43.48 42.64 43.46 42.70 43.75 42.49 44.25 42.87 41.37 42.89 42.54 42.64 43.07 44.28 43.77 44.29 45.35 47.01 46.99 47.83 49.09 49.96 48.43 44.93 34.93 32.86 32.51 36.47 33.01 39.94 48.93 51.65 52.49 52.26 51.22 53.06 52.36 51.93
MSLP
1018.54 1018.48 1018.40 1018.24 1018.02 1018.04 1017.78 1017.29 1017.03 1016.86 1016.80 1016.93 1016.77 1016.57 1016.54 1016.48 1016.30 1016.31 1016.45 1016.58 1016.52 1016.31 1015.99 1015.69 1015.49 1015.16 1015.22 1015.23 1015.09 1015.11 1015.19 1015.14 1014.92 1014.54 1014.19 1013.69 1013.73 1013.60 1013.65 1013.92 1014.12 1014.60 1015.07
1018.12 1018.19 1018.12 1017.97 1017.55 1017.53 1017.19 1016.83 1016.50 1016.35 1016.28 1016.33 1016.28 1016.33 1016.12 1016.08 1016.00 1015.94 1016.23 1016.15 1016.21 1016.07 1015.59 1015.32 1015.26 1014.85 1015.04 1014.95 1015.06 1015.04 1014.77 1014.40 1014.32 1014.38 1014.31 1014.34 1014.25 1014.21 1014.06 1014.65 1014.82 1015.17 1015.44
1017.73 1017.85 1017.96 1017.61 1017.31 1017.02 1016.57 1016.19 1015.78 1015.56 1015.75 1015.95 1015.94 1015.97 1015.68 1015.61 1015.55 1015.56 1015.75 1015.75 1015.86 1015.64 1015.39 1015.19 1015.14 1015.02 1014.99 1014.86 1014.86 1014.87 1014.78 1014.35 1014.16 1014.32 1014.41 1014.40 1014.51 1014.18 1015.14 1015.25 1015.84 1016.12 1016.50
1017.53 1017.46 1017.45 1017.37 1017.02 1016.65 1016.20 1015.70 1015.37 1015.37 1015.35 1015.46 1015.59 1015.43 1015.60 1015.35 1015.19 1015.03 1015.30 1015.33 1015.62 1015.54 1015.35 1015.02 1015.05 1015.08 1014.92 1014.79 1014.67 1014.90 1015.01 1014.88 1014.87 1014.54 1014.01 1014.15 1014.15 1014.69 1014.95 1015.84 1016.73 1017.13 1017.37
1017.62 1017.49 1017.31 1016.98 1016.64 1016.27 1015.85 1015.37 1015.05 1015.04 1015.19 1015.12 1015.12 1015.18 1015.18 1015.04 1014.58 1014.92 1014.89 1015.11 1015.51 1015.40 1015.39 1014.98 1015.10 1014.98 1014.78 1014.84 1014.85 1015.10 1015.28 1015.28 1015.24 1015.07 1014.32 1014.25 1014.82 1015.40 1015.97 1016.65 1017.11 1017.75 1018.28
1017.90 1017.53 1017.04 1016.81 1016.51 1016.24 1015.68 1015.21 1014.98 1014.80 1014.92 1014.68 1014.62 1014.79 1014.64 1014.71 1014.40 1014.41 1014.68 1014.99 1015.20 1015.38 1015.52 1015.17 1015.04 1014.96 1014.86 1014.82 1014.73 1014.84 1014.94 1015.18 1015.35 1015.95 1015.82 1015.67 1015.98 1016.07 1016.48 1016.95 1017.57 1018.36 1018.87
1018.05 1017.58 1016.98 1016.78 1016.54 1016.13 1015.66 1015.30 1014.97 1014.75 1014.58 1014.35 1014.17 1014.27 1014.43 1014.08 1014.09 1014.31 1014.41 1014.84 1015.18 1015.30 1015.17 1015.10 1015.08 1015.02 1015.07 1015.03 1014.95 1015.00 1014.98 1014.98 1014.99 1015.21 1015.87 1016.03 1016.23 1016.30 1016.60 1017.12 1017.42 1017.74 1017.98
1018.29 1017.79 1017.20 1016.84 1016.38 1016.09 1015.67 1015.36 1015.11 1014.94 1014.75 1014.21 1014.05 1013.90 1013.89 1013.77 1013.87 1014.26 1014.36 1014.65 1014.94 1015.09 1015.19 1014.97 1015.04 1015.23 1015.23 1015.21 1015.22 1015.14 1015.24 1015.16 1015.06 1014.95 1015.29 1015.53 1015.58 1015.69 1015.86 1016.33 1016.84 1017.40 1017.72
1018.44 1018.00 1017.60 1017.11 1016.55 1016.12 1015.67 1015.26 1014.74 1014.70 1014.61 1014.10 1013.65 1013.61 1013.56 1013.45 1013.62 1014.09 1014.32 1014.56 1014.90 1014.90 1014.99 1014.85 1015.00 1015.15 1015.12 1015.15 1015.02 1015.43 1015.70 1015.60 1015.44 1015.37 1015.41 1015.56 1015.52 1015.57 1015.73 1016.43 1017.24 1017.66 1017.92
1018.60 1018.08 1017.50 1017.06 1016.60 1016.13 1015.73 1015.25 1014.67 1014.20 1014.17 1014.03 1013.63 1013.33 1013.08 1013.13 1013.37 1013.84 1014.07 1014.45 1014.85 1014.87 1014.59 1014.75 1014.77 1015.09 1015.19 1015.24 1015.23 1015.29 1015.92 1016.00 1015.80 1015.79 1015.81 1015.82 1015.78 1015.88 1015.98 1016.35 1016.95 1017.51 1017.78
1018.60 1018.09 1017.54 1017.05 1016.58 1015.99 1015.53 1015.10 1014.56 1014.04 1013.93 1013.89 1013.32 1013.36 1013.26 1013.10 1013.33 1013.65 1013.97 1014.25 1014.59 1014.75 1014.77 1014.84 1014.98 1015.04 1015.26 1015.44 1015.35 1015.59 1015.89 1015.95 1015.93 1015.90 1015.99 1015.98 1015.94 1016.06 1016.26 1016.55 1016.50 1016.76 1017.14
1018.59 1018.12 1017.69 1016.99 1016.54 1015.86 1015.57 1015.14 1014.74 1014.32 1014.20 1014.19 1013.81 1013.37 1013.19 1013.13 1013.48 1013.62 1013.92 1014.12 1014.33 1014.68 1014.73 1014.62 1014.62 1014.96 1015.27 1015.58 1015.65 1015.61 1015.76 1015.82 1016.04 1016.24 1016.41 1016.41 1016.38 1016.31 1016.21 1016.43 1016.53 1016.46 1016.31
1018.74 1018.35 1017.88 1017.17 1016.67 1016.07 1015.76 1015.22 1015.01 1014.64 1014.44 1014.22 1014.11 1013.73 1013.42 1012.95 1013.10 1013.13 1013.55 1014.11 1014.58 1014.66 1014.61 1014.51 1014.45 1014.77 1015.19 1015.46 1015.62 1015.72 1015.70 1015.90 1016.23 1016.46 1016.41 1016.09 1015.98 1015.71 1015.71 1016.25 1016.41 1016.38 1016.39
1018.83 1018.42 1017.93 1017.41 1016.80 1016.25 1015.67 1015.37 1015.06 1014.90 1014.86 1014.62 1014.51 1014.21 1013.88 1013.40 1013.38 1013.50 1013.82 1014.22 1014.45 1014.56 1014.62 1014.68 1014.78 1014.79 1015.04 1015.33 1015.59 1015.65 1015.65 1015.58 1015.98 1016.09 1016.09 1015.62 1015.16 1015.63 1015.88 1015.98 1016.34 1016.54 1016.92
1018.73 1018.43 1018.06 1017.60 1017.06 1016.52 1015.96 1015.55 1015.24 1015.07 1015.23 1015.04 1014.98 1014.63 1014.20 1013.98 1014.28 1014.26 1014.01 1014.37 1014.41 1014.53 1014.73 1015.08 1015.27 1015.38 1015.49 1015.47 1015.53 1015.46 1015.43 1015.45 1015.61 1015.51 1015.65 1015.89 1015.65 1015.70 1015.67 1015.74 1016.07 1016.59 1016.81
1018.57 1018.27 1017.96 1017.65 1017.17 1016.68 1016.23 1015.76 1015.36 1015.34 1015.35 1015.17 1015.00 1014.88 1014.41 1014.13 1013.92 1014.03 1014.16 1014.34 1014.35 1014.40 1014.88 1014.97 1015.06 1015.11 1015.21 1015.17 1015.31 1015.37 1015.31 1015.20 1015.17 1015.24 1015.31 1015.29 1015.29 1015.56 1015.63 1015.47 1015.59 1015.98 1016.27
1018.36 1018.08 1017.74 1017.55 1017.23 1016.83 1016.48 1016.30 1016.04 1015.44 1015.36 1015.28 1015.18 1015.02 1014.86 1014.70 1014.35 1014.13 1013.96 1013.98 1014.05 1014.04 1014.71 1014.61 1014.49 1014.56 1014.48 1014.35 1014.27 1014.26 1014.32 1014.32 1014.35 1014.68 1014.85 1015.00 1014.92 1014.96 1015.10 1015.21 1015.19 1015.45 1015.68
1017.90 1017.81 1017.68 1017.50 1017.18 1016.88 1016.63 1016.40 1015.94 1015.63 1015.30 1014.87 1014.99 1015.01 1014.97 1014.76 1014.39 1014.18 1014.04 1013.78 1013.85 1014.18 1014.41 1014.05 1013.93 1013.90 1013.76 1013.59 1013.67 1013.16 1012.97 1013.03 1013.70 1014.02 1014.37 1014.38 1014.48 1014.63 1014.72 1014.80 1014.86 1015.10 1015.15
1017.60 1017.55 1017.53 1017.25 1016.86 1016.85 1016.70 1016.40 1016.23 1015.97 1015.68 1015.30 1014.87 1015.25 1014.99 1014.61 1014.29 1014.43 1014.47 1014.37 1014.18 1013.99 1013.70 1013.44 1013.31 1013.34 1013.32 1012.98 1012.66 1012.53 1012.47 1012.52 1012.85 1013.41 1013.89 1014.00 1013.93 1014.10 1014.30 1014.38 1014.44 1014.45 1014.51
1017.23 1017.14 1017.11 1017.15 1016.68 1016.62 1016.58 1016.38 1016.26 1016.04 1015.76 1015.46 1015.27 1015.19 1014.88 1014.49 1014.39 1014.42 1014.22 1014.11 1013.99 1013.67 1013.55 1013.19 1013.03 1012.97 1012.73 1012.72 1012.87 1012.84 1012.87 1012.60 1012.83 1013.00 1013.18 1013.39 1013.47 1013.61 1013.78 1013.87 1013.92 1014.05 1014.13
1017.06 1016.94 1016.74 1016.72 1016.68 1016.62 1016.48 1016.38 1016.32 1016.12 1015.83 1015.50 1015.22 1014.99 1014.92 1015.01 1014.54 1014.26 1013.97 1013.75 1013.48 1013.29 1013.10 1012.92 1012.74 1012.76 1012.76 1012.56 1012.52 1012.57 1012.62 1012.58 1012.59 1012.54 1012.63 1012.75 1012.97 1013.24 1013.04 1013.19 1013.35 1013.39 1013.53
1016.62 1016.57 1016.47 1016.30 1016.31 1016.21 1016.15 1016.14 1016.05 1015.96 1015.74 1015.47 1015.23 1014.94 1014.67 1014.66 1014.60 1014.30 1013.95 1013.75 1013.54 1013.44 1013.25 1012.94 1012.72 1012.60 1012.56 1012.76 1012.63 1012.69 1013.12 1012.66 1012.94 1012.47 1012.32 1012.36 1012.38 1012.43 1012.58 1012.84 1012.87 1012.91 1012.98
1016.14 1016.02 1016.00 1015.94 1015.91 1015.81 1015.77 1015.69 1015.62 1015.46 1015.36 1015.29 1015.14 1014.98 1014.77 1014.74 1014.56 1014.38 1014.09 1013.88 1013.71 1013.53 1013.25 1013.00 1012.84 1012.62 1012.20 1012.13 1011.98 1012.95 1013.16 1012.87 1013.28 1013.11 1012.59 1012.51 1012.39 1012.26 1012.07 1012.23 1012.33 1012.35 1012.45
1015.58 1015.62 1015.54 1015.48 1015.42 1015.36 1015.29 1015.10 1015.03 1014.96 1014.89 1014.85 1014.80 1014.72 1014.65 1014.40 1014.29 1014.16 1014.03 1013.98 1013.89 1013.76 1013.35 1013.02 1012.96 1012.75 1012.91 1013.10 1013.29 1013.30 1013.19 1013.15 1012.85 1012.51 1012.71 1012.52 1012.15 1012.07 1012.13 1012.05 1012.01 1012.20 1011.99
1014.93 1014.92 1014.88 1014.90 1014.83 1014.76 1014.65 1014.41 1014.28 1014.16 1014.09 1014.07 1014.13 1014.19 1014.06 1013.97 1013.98 1013.92 1013.86 1013.80 1013.53 1013.32 1013.10 1012.82 1012.64 1012.56 1012.68 1012.82 1013.07 1013.23 1013.52 1013.62 1013.44 1012.27 1012.27 1012.44 1012.41 1011.82 1012.10 1012.22 1011.81 1011.64 1011.90
1014.08 1014.17 1014.08 1014.11 1014.03 1013.87 1013.72 1013.58 1013.41 1013.24 1013.24 1013.18 1013.14 1013.28 1013.22 1013.35 1013.33 1013.33 1013.34 1013.32 1013.23 1013.06 1012.79 1012.46 1012.39 1012.23 1012.28 1012.63 1012.69 1012.94 1013.08 1013.05 1012.91 1012.82 1012.69 1012.37 1012.06 1011.34 1011.54 1011.78 1011.34 1011.31 1012.38
Wind_Speed
2 2 1 3 3 6 6 7 7 6 6 6 6 6 6 6 6 5 4 6 6 5 4 4 6 3 2 2 2 3 3 4 5 3 1 4 5 4 3 5 4 6 8
3 3 4 4 4 5 6 7 7 8 6 6 6 5 6 5 6 5 4 3 3 4 5 2 4 3 2 2 1 2 2 2 3 3 1 3 5 5 5 8 6 7 8
3 4 5 6 4 6 6 8 7 6 5 5 3 4 7 6 8 4 5 4 1 3 4 2 3 4 2 1 1 2 2 2 3 2 1 1 3 4 7 9 8 7 6
5 5 5 6 7 6 7 8 5 5 4 4 3 3 8 6 6 4 6 3 1 3 5 1 4 4 3 2 3 4 3 4 3 3 3 3 8 4 9 10 7 5 5
7 7 7 7 7 7 7 6 5 5 3 5 4 4 8 6 4 6 5 5 3 3 4 2 3 2 4 3 2 4 5 3 3 4 5 8 8 8 10 4 5 4 3
7 7 6 6 7 7 7 6 5 4 4 5 5 6 8 6 7 10 8 5 5 3 3 2 4 3 3 5 4 6 7 5 2 4 1 3 3 2 3 4 4 4 2
6 7 7 5 6 6 7 6 6 5 5 7 5 5 6 7 6 9 11 5 4 2 2 2 1 3 1 2 7 4 4 3 6 6 6 4 4 5 5 4 3 6 4
9 10 9 6 6 7 7 6 4 3 6 6 6 6 5 5 9 9 8 4 3 2 3 4 1 4 2 3 3 1 2 5 4 4 6 4 4 4 8 7 7 5 3
8 7 10 12 7 7 6 8 5 2 3 5 7 6 4 5 12 10 7 4 3 5 4 4 5 4 6 4 4 6 3 4 6 8 8 8 8 9 7 5 3 3 2
10 9 8 7 8 7 6 7 6 4 4 7 5 6 7 7 11 11 9 4 3 4 3 3 6 7 6 7 6 5 6 3 3 2 2 3 4 4 8 6 3 3 2
7 8 8 10 7 6 6 4 7 4 6 7 5 5 2 1 6 8 8 4 3 3 3 2 3 7 7 6 8 6 3 2 1 2 2 1 1 1 2 4 3 3 3
7 8 8 10 7 7 7 5 7 4 4 4 4 3 2 4 3 8 9 9 4 3 0 2 5 11 9 5 3 7 4 4 3 3 1 2 2 2 3 3 4 3 4
7 7 7 10 6 6 6 6 4 7 4 2 3 3 5 4 2 6 12 4 6 1 2 5 5 11 9 5 4 3 2 1 2 1 3 4 5 6 4 3 3 3 2
7 8 6 6 9 9 8 4 3 4 4 4 3 4 4 2 2 1 3 5 4 2 1 2 2 5 6 5 3 3 3 3 3 3 2 4 3 3 4 4 3 2 2
6 6 6 5 5 7 7 5 4 3 2 2 2 3 4 3 2 3 4 4 4 1 3 2 1 1 2 3 3 5 5 4 3 3 3 2 1 1 3 4 4 3 3
5 5 4 4 5 4 6 7 3 5 1 3 1 3 4 2 8 4 3 1 6 9 1 3 3 4 5 5 5 5 4 5 5 4 4 3 3 4 4 3 3 4 6
3 5 4 3 4 5 5 5 5 3 3 5 2 4 4 5 8 7 6 7 5 6 2 5 4 5 6 6 6 7 8 8 7 5 5 5 4 3 3 4 6 5 5
2 6 4 4 4 3 4 5 4 3 3 4 5 3 5 8 3 6 4 6 3 1 3 4 4 4 6 6 4 4 7 8 7 7 5 5 5 4 2 3 2 4 5
3 3 3 4 4 3 3 4 5 6 5 6 1 2 6 7 5 3 2 2 3 4 4 4 5 3 2 3 1 2 2 4 5 5 4 4 4 4 4 4 4 5 4
4 7 5 4 3 2 2 3 4 5 5 4 3 1 2 5 3 2 2 4 5 4 3 2 1 3 3 1 3 3 4 2 4 4 4 4 4 4 4 5 4 4 4
3 3 4 2 1 1 1 1 2 3 4 5 4 3 4 3 4 3 3 4 3 3 3 2 2 2 2 2 3 5 4 4 3 5 4 5 5 4 5 5 5 4 4
4 4 4 1 3 3 3 3 3 4 4 4 4 4 7 3 4 3 4 4 3 3 3 4 2 2 1 1 1 4 5 5 5 4 2 4 4 5 5 4 5 4 4
4 4 2 2 3 5 4 5 4 4 3 4 4 3 3 3 3 3 3 4 4 5 4 5 5 5 4 4 5 2 1 4 2 3 3 2 3 5 6 8 6 4 4
5 4 4 4 4 3 4 5 4 5 5 4 4 3 4 3 3 3 3 3 3 4 4 3 3 3 4 4 3 3 3 3 2 3 5 4 4 6 4 1 1 3 3
6 5 5 4 5 5 5 6 6 6 5 5 5 5 4 4 3 3 4 4 4 4 5 5 4 2 6 6 6 6 3 3 4 4 4 7 4 3 2 3 2 4 5
5 6 5 5 5 5 5 5 6 6 6 5 5 6 6 5 5 5 4 5 4 5 5 4 4 4 2 5 5 5 3 3 5 5 2 4 5 3 2 5 1 4 9
Wind_Direction
32 4 314 291 316 294 262 254 241 244 244 250 261 264 269 265 255 241 224 257 278 294 295 267 294 269 173 268 244 220 234 210 240 276 46 351 36 36 38 114 115 95 116
23 6 320 296 307 295 283 270 242 228 231 245 246 261 265 272 260 240 238 227 297 291 308 353 324 358 177 289 309 279 275 268 178 176 318 49 58 37 94 109 115 93 97
18 345 313 323 298 287 290 279 251 231 216 238 254 291 274 256 249 224 198 202 264 306 354 29 342 6 2 269 269 2 18 11 29 77 228 204 80 51 146 103 98 90 102
358 340 319 310 300 303 292 299 246 248 242 266 228 316 288 256 254 201 187 133 354 3 341 231 50 30 29 48 62 53 90 52 10 355 47 119 133 175 105 118 109 101 110
338 330 333 316 313 322 303 293 269 252 244 241 248 286 264 264 236 193 182 142 179 55 337 325 89 59 7 10 105 89 116 81 44 24 20 56 89 106 120 122 102 110 45
335 326 331 331 340 325 317 322 298 294 281 307 270 245 265 236 261 190 148 155 159 187 244 322 108 121 335 23 58 126 151 145 128 98 10 34 60 81 75 113 125 109 128
348 326 326 336 333 331 326 337 352 342 342 303 253 211 235 231 203 172 147 163 165 170 144 142 57 114 163 24 47 81 97 168 181 170 166 186 169 190 157 130 153 161 166
345 335 327 330 352 330 329 315 322 354 317 313 306 248 213 222 181 183 170 168 178 212 220 188 182 126 98 104 113 168 63 70 64 82 129 152 137 156 158 164 164 160 76
339 342 349 347 328 325 326 327 288 224 277 305 316 303 267 243 188 187 167 169 213 241 200 221 213 202 151 82 74 158 100 52 56 77 98 109 88 89 111 112 127 119 235
333 331 328 323 344 315 330 324 300 273 234 268 278 286 246 200 191 193 173 164 197 244 285 45 189 177 97 68 72 114 135 185 137 85 72 82 117 98 92 102 145 148 195
327 335 337 339 322 326 322 313 325 333 31 334 319 331 301 32 174 187 198 180 174 224 201 207 192 163 137 114 107 106 141 192 185 159 181 151 41 130 159 138 130 135 143
333 341 332 329 322 327 331 339 345 10 38 9 342 326 243 218 148 187 214 219 152 129 26 290 208 174 165 147 113 145 113 64 59 42 32 258 230 221 239 160 164 147 118
331 327 325 342 332 334 339 332 355 3 345 9 351 2 343 268 319 308 206 156 91 354 331 292 182 154 158 144 160 192 99 82 47 18 302 241 201 206 182 148 151 146 132
328 322 320 340 350 340 347 314 348 23 339 22 26 5 350 328 331 120 149 152 170 166 299 109 181 155 159 189 198 239 244 233 183 221 243 277 146 138 165 164 178 170 138
323 315 330 326 335 333 347 331 327 72 19 16 30 328 347 357 15 335 84 93 127 16 143 103 138 126 209 246 243 224 234 249 262 241 260 169 238 235 169 179 168 168 180
330 315 304 323 326 333 342 347 13 92 75 76 72 49 330 332 335 337 23 214 101 80 131 195 215 207 212 221 219 241 246 223 232 232 243 245 185 183 228 218 175 179 204
337 329 316 338 331 338 357 339 345 324 224 204 213 322 359 304 308 300 315 336 355 64 182 217 217 208 222 219 225 218 218 219 209 211 227 233 224 249 218 203 213 201 215
349 341 339 324 335 337 337 325 323 329 2 306 183 203 280 298 281 264 295 10 338 92 235 213 234 234 240 240 220 217 232 209 192 200 198 202 203 204 224 257 217 200 204
327 287 303 293 286 342 4 356 350 351 343 321 45 355 282 308 72 140 170 254 257 262 247 248 242 208 225 306 301 325 57 115 147 153 198 211 217 178 216 232 240 250 209
306 293 275 285 309 101 355 346 344 329 336 330 351 21 312 16 8 341 249 234 239 255 233 291 298 269 299 359 15 335 302 232 178 179 191 200 217 199 214 232 232 238 219
276 267 307 241 64 96 297 354 326 310 319 314 327 1 355 356 310 310 318 316 279 304 301 285 329 321 309 25 345 3 309 231 236 221 210 216 210 219 224 227 235 238 229
276 255 251 244 192 214 233 267 265 271 283 306 307 308 320 359 353 345 356 355 11 25 359 326 328 318 292 185 284 35 319 44 6 331 240 264 231 222 224 227 236 241 217
263 259 290 307 246 249 239 234 249 232 258 313 306 264 266 298 299 319 337 331 350 335 336 1 6 8 29 9 38 7 50 53 355 327 20 21 276 238 237 240 238 237 215
254 236 245 247 265 270 268 248 241 242 239 230 248 266 290 278 253 284 309 309 311 297 302 304 321 328 84 104 83 72 38 353 328 45 354 334 27 4 358 289 137 300 243
215 220 244 243 240 244 257 243 233 234 229 216 220 207 231 256 264 270 268 278 289 296 294 275 241 304 138 131 124 104 87 295 306 86 19 324 288 55 312 291 335 24 335
233 220 223 233 244 235 237 249 244 222 227 235 224 203 205 211 230 224 226 240 251 260 267 274 261 248 285 138 105 100 85 53 17 2 340 288 305 344 356 275 246 51 287